Current weather by "City, St" or "zip code"  
 
Advertise Here

Current Conditions: Butler, Butler County Airport/K W Scholter Field, PA

Mostly Cloudy


58.0 F

Last Updated on May 12 2021, 1:56 pm EDT
Humidity: 41%
Wind Speed: N 6.9 mph
Barometer 30.30 in
Dewpoint: 34.0 F
Visibility: 10.00 mi
Precip: 00.01 in
Heat Index: NA
Wind Chill: 57 F
Current conditions at:

Butler, Butler County Airport/K W Scholter Field, PA (KBTP)

Lat: 40.78333 Lon: 79.95

Local Radar Image active severe weather and emergency alerts image image weather storm and storm spotter reports image weather observation monitoring service image
Local
Radar
Active
Alerts
Storm Reports Obs
Monitoring

Sign-up For Email & Text Message Weather Alert Notification Services


Advertise Here

Observation History for Butler, Butler County Airport/K W Scholter Field, PA


Time Wind
(mph)
Vis
(mi)
Weather Precip (in) Temperature (F) Relative
Humidity
Wind
Chill
(F)
Heat
Index
(F)
Pressure
Air Dwpt altimeter
(in)
sea level
(mb)
Rmks
1:56 pm EDT N 6.9 10.00 Mostly Cloudy 00.01 58.0 34.0 41% 57 NA 30.30 1027.4
12:56 pm EDT 6.9 10.00 Partly Cloudy -- 57.0 35.1 44% 56 NA 30.32 1027.7
11:56 am EDT NE 8.1 10.00 Partly Cloudy -- 55.0 36.0 49% 53 NA 30.34 1028.7
10:56 am EDT N 5.8 10.00 Partly Cloudy -- 53.0 37.9 57% 51 NA 30.34 1028.8
9:56 am EDT 4.6 10.00 Fair -- 49.0 37.9 66% 47 NA 30.35 1029.0
8:56 am EDT 5.8 10.00 Fair -- 46.0 37.9 73% 43 NA 30.35 1029.2
7:56 am EDT W 4.6 10.00 Fair -- 40.0 36.0 86% 37 NA 30.35 1029.0
6:56 am EDT N 0.0 10.00 Fair -- 36.0 35.1 97% NA NA 30.32 1028.3
5:56 am EDT N 0.0 10.00 Fair -- 34.0 32.0 92% NA NA 30.30 1027.5
4:56 am EDT N 0.0 10.00 Overcast -- 36.0 32.0 86% NA NA 30.29 1027.0
3:56 am EDT 3.5 10.00 Overcast -- 35.0 30.9 85% NA NA 30.28 1026.6
1:56 am EDT W 3.5 10.00 Fair -- 32.0 28.9 88% NA NA 30.28 1026.7
12:56 am EDT N 0.0 10.00 Fair -- 34.0 28.9 82% NA NA 30.28 1026.7
11:56 pm EDT N 0.0 10.00 Fair -- 35.0 30.0 82% NA NA 30.29 1026.9
10:56 pm EDT N 0.0 10.00 Fair -- 38.0 28.0 68% NA NA 30.29 1026.9
9:56 pm EDT N 0.0 10.00 Fair -- 39.0 30.0 70% NA NA 30.26 1026.1
8:56 pm EDT N 0.0 10.00 Fair -- 43.0 26.1 51% NA NA 30.25 1025.5
7:56 pm EDT 5.8 10.00 Fair -- 46.0 24.1 42% 43 NA 30.23 1024.9
6:56 pm EDT W 9.2 G 18.4 10.00 A Few Clouds -- 50.0 25.0 38% 46 NA 30.20 1023.9
5:56 pm EDT NW 10.4 G 20.7 10.00 A Few Clouds -- 52.0 27.0 38% 48 NA 30.18 1023.1
4:56 pm EDT NW 11.5 G 18.4 10.00 Mostly Cloudy -- 52.0 27.0 38% 48 NA 30.16 1022.4
3:56 pm EDT NW 10.4 G 16.1 10.00 Overcast 00.01 51.0 27.0 39% 47 NA 30.16 1022.4
2:56 pm EDT NW 13.8 G 19.6 10.00 Mostly Cloudy -- 52.0 27.0 38% 47 NA 30.16 1022.4

Regional Weather Observation


New Castle, New Castle Municipal Airport, PA (KUCP)

Mostly Cloudy
59.0 F

Beaver County Airport, PA (KBVI)

Partly Cloudy
61.0 F

Butler, Butler County Airport/K W Scholter Field, PA (KBTP)

Mostly Cloudy
58.0 F

Youngstown, Youngstown-Warren Regional Airport, OH (KYNG)

Mostly Cloudy
58.0 F

Pittsburgh, Pittsburgh International Airport, PA (KPIT)

Mostly Cloudy
60.0 F

Franklin, Venango Regional Airport, PA (KFKL)

Mostly Cloudy
58.0 F
Advertise Here

Advertise Here